STARLINK-5128 (53998 NORAD) Tracking and Keplerian Element Data

This shows tracking and keplerian element data for the satellite.

Feedback or suggestion? Click here.




ElementValue
Catalog53998
NameSTARLINK-5128
Epoch Orbit765
Epoch Day325.25001157
Epoch Year2022
RAAN223.8773
Inclination53.215
Eccentricity9.91E-05
Argument of Perigee96.17
Mean Anonmoly238.8907
Mean Motion15.49886168
Decay Rate0.00028011
L11 53998U 22125AL 22325.25001157 .00028011 00000+0 49968-3 0 9991
L22 53998 53.2150 223.8773 0000991 96.1700 238.8907 15.49886168 7657



Live tracking and technical data element details for STARLINK-5128 (NORAD 53998). STARLINK-5128 can be tracked NOW for your location showing map with azimuth and elevation plus other details from your city location.







IsCatalogInMostPopularTable: catalog: 53998, numindb: 3
Update: records affected: 1



GetName: 53998 STARLINK-5128

Hit Count: updated at: Fri, 09 Dec 2022 19:55:59 GMT